Vorticity
11 10 10 9 11 10 10 8 8 8 8 8 8 8 9 9 9 10 10 9 9 9
9 9 9 9 10 10 9 8 9 8 7 8 9 10 10 10 10 11 10 10 9 9
8 8 8 8 9 9 8 7 8 9 8 9 10 9 8 9 9 9 9 9 10 10
6 9 8 8 8 8 8 7 6 8 8 10 10 9 9 8 9 9 9 10 10 10
8 11 10 8 8 8 8 7 7 7 7 7 10 9 8 8 8 8 10 11 12 12
12 12 11 9 9 9 8 7 7 6 7 7 9 10 9 9 9 9 11 10 10 9
13 13 12 10 9 8 8 7 6 6 6 6 6 9 9 8 9 10 11 10 11 9
7 11 15 13 10 7 7 7 7 7 7 4 13 14 12 8 6 8 10 10 9 8
11 9 13 14 9 8 8 8 7 5 10 6 8 1 11 11 8 8 9 9 10 11
9 9 10 12 13 13 11 10 10 8 7 -6 1 15 9 14 8 8 10 10 13 12
8 9 9 11 10 14 13 10 12 14 8 -2 4 4 8 15 9 8 10 14 14 10
8 9 8 9 10 10 14 15 14 21 8 5 15 3 7 18 10 8 10 12 7 7
13 10 10 9 7 7 9 11 11 17 16 -5 23 10 1 19 11 10 10 10 7 11
15 12 10 9 7 7 8 12 14 14 13 -0 3 15 -7 14 11 9 10 11 8 12
Height
3093 3091 3088 3085 3082 3079 3076 3073 3070 3068 3065 3062 3059 3057 3055 3052 3050 3047 3044 3042 3040 3037
3088 3085 3082 3079 3077 3074 3071 3068 3066 3063 3060 3057 3054 3051 3048 3046 3043 3041 3039 3036 3034 3031
3082 3079 3076 3073 3071 3068 3066 3063 3060 3058 3056 3053 3050 3047 3043 3040 3037 3035 3033 3030 3028 3026
3078 3075 3071 3068 3065 3063 3060 3057 3054 3052 3050 3047 3045 3042 3039 3037 3033 3030 3027 3025 3022 3020
3071 3068 3065 3062 3059 3056 3054 3052 3050 3047 3044 3041 3039 3036 3034 3031 3028 3026 3022 3019 3017 3014
3064 3060 3058 3055 3053 3050 3048 3045 3043 3041 3038 3036 3034 3030 3028 3025 3022 3020 3017 3014 3011 3008
3056 3053 3050 3047 3045 3043 3041 3038 3036 3034 3032 3029 3028 3024 3022 3020 3017 3013 3010 3007 3005 3002
3048 3045 3042 3040 3037 3035 3033 3031 3029 3026 3025 3023 3021 3018 3014 3013 3011 3009 3004 3000 2997 2995
3040 3037 3035 3032 3030 3027 3025 3023 3021 3019 3017 3015 3014 3011 3007 3005 3003 3001 2999 2996 2991 2987
3031 3029 3027 3024 3022 3020 3017 3014 3013 3012 3010 3008 3007 3004 3000 2997 2995 2994 2990 2988 2986 2981
3021 3019 3018 3015 3013 3010 3008 3005 3003 3003 3002 3000 2999 2998 2995 2991 2988 2986 2984 2981 2978 2976
3012 3009 3008 3006 3004 3001 2997 2995 2994 2992 2992 2992 2990 2989 2987 2984 2981 2978 2977 2975 2973 2971
3003 2999 2998 2995 2993 2991 2989 2987 2985 2983 2983 2983 2982 2980 2978 2977 2975 2973 2969 2968 2967 2964
2993 2990 2987 2985 2983 2980 2977 2975 2973 2974 2973 2973 2973 2971 2970 2969 2967 2965 2963 2961 2960 2958